TimeCDT,TemperatureF,Dew PointF,Humidity,Sea Level PressureIn,VisibilityMPH,Wind Direction,Wind SpeedMPH,Gust SpeedMPH,PrecipitationIn,Events,Conditions,WindDirDegrees,DateUTC
12:53 AM,59.0,50.0,72,29.84,10.0,South,5.8,-,N/A,,Clear,190,2012-10-17 05:53:00
1:53 AM,55.9,50.0,80,29.84,10.0,Calm,Calm,-,N/A,,Clear,0,2012-10-17 06:53:00
2:53 AM,55.9,48.9,77,29.83,10.0,South,3.5,-,N/A,,Clear,180,2012-10-17 07:53:00
3:53 AM,54.0,48.9,83,29.83,10.0,SSE,3.5,-,N/A,,Clear,160,2012-10-17 08:53:00
4:53 AM,52.0,48.9,89,29.83,10.0,Calm,Calm,-,N/A,,Clear,0,2012-10-17 09:53:00
5:53 AM,50.0,46.9,89,29.83,8.0,Calm,Calm,-,N/A,,Clear,0,2012-10-17 10:53:00
6:53 AM,52.0,48.0,86,29.84,10.0,South,5.8,-,N/A,,Clear,190,2012-10-17 11:53:00
7:53 AM,57.9,51.1,78,29.83,10.0,South,9.2,-,N/A,,Clear,180,2012-10-17 12:53:00
8:53 AM,63.0,51.1,65,29.83,10.0,South,9.2,-,N/A,,Clear,180,2012-10-17 13:53:00
9:53 AM,69.1,51.1,53,29.82,10.0,South,10.4,-,N/A,,Clear,180,2012-10-17 14:53:00
10:53 AM,72.0,48.9,44,29.80,10.0,South,15.0,23.0,N/A,,Partly Cloudy,190,2012-10-17 15:53:00
11:53 AM,75.0,46.0,36,29.78,10.0,South,17.3,27.6,N/A,,Scattered Clouds,180,2012-10-17 16:53:00
12:53 PM,77.0,48.9,37,29.75,10.0,South,18.4,26.5,N/A,,Clear,190,2012-10-17 17:53:00
1:53 PM,75.9,48.0,37,29.72,10.0,South,17.3,25.3,N/A,,Mostly Cloudy,180,2012-10-17 18:53:00
2:53 PM,77.0,48.9,37,29.69,10.0,South,17.3,25.3,N/A,,Scattered Clouds,180,2012-10-17 19:53:00
3:53 PM,77.0,48.0,36,29.68,10.0,South,19.6,27.6,N/A,,Clear,190,2012-10-17 20:53:00
4:53 PM,73.9,48.0,40,29.66,10.0,South,15.0,-,N/A,,Clear,190,2012-10-17 21:53:00
5:53 PM,73.9,46.9,38,29.65,10.0,South,12.7,-,N/A,,Clear,180,2012-10-17 22:53:00
6:53 PM,71.1,48.0,44,29.63,10.0,SSE,13.8,20.7,N/A,,Clear,160,2012-10-17 23:53:00
7:53 PM,70.0,46.9,44,29.59,10.0,SSE,13.8,-,N/A,,Clear,160,2012-10-18 00:53:00
8:53 PM,70.0,45.0,41,29.58,10.0,South,19.6,28.8,N/A,,Clear,180,2012-10-18 01:53:00
9:53 PM,70.0,45.0,41,29.58,10.0,South,20.7,28.8,N/A,,Clear,180,2012-10-18 02:53:00
10:53 PM,70.0,45.0,41,29.52,10.0,South,20.7,33.4,N/A,,Clear,170,2012-10-18 03:53:00
11:45 PM,69.8,46.4,43,29.59,10.0,SW,19.6,33.4,N/A,Thunderstorm,Overcast,230,2012-10-18 04:45:00
11:53 PM,66.0,50.0,56,29.63,6.0,WSW,19.6,34.5,0.03,Rain-Thunderstorm,Heavy Thunderstorms and Rain,250,2012-10-18 04:53:00